Weather History for Sarasota, FL

Change the Weather History Date:

Thursday, December 20, 2012

  Actual Average Record
Temperature  
Mean Temperature 67 °F 63 °F  
Max Temperature 80 °F 72 °F 86 °F (1990)
Min Temperature 54 °F 53 °F 28 °F (1981)
Degree Days  
Heating Degree Days 0 4  
Month to date heating degree days 67  
Since 1 July heating degree days 100  
Cooling Degree Days 2 2  
Month to date cooling degree days 54  
Year to date cooling degree days 3354  
Growing Degree Days 17 (Base 50)    
Moisture  
Dew Point 63 °F    
Average Humidity 82    
Maximum Humidity 96    
Minimum Humidity 60    
Precipitation  
Precipitation 0.23 in 0.11 in 1.77 in (1940)
Month to date precipitation 1.60  
Year to date precipitation 52.08  
Sea Level Pressure  
Sea Level Pressure 30.00 in    
Wind  
Wind Speed 9 mph (South)    
Max Wind Speed 22 mph    
Max Gust Speed 36 mph    
Visibility 9 miles    
Events Rain    
T = Trace of Precipitation, MM = Missing Value Source: NWS Daily Summary

Daily Weather History Graph

Daily Weather History Graph

Search for Another Location

Airport:

Trip Planner

Search our weather history database for the weather conditions in past years. The results will help you decide how hot, cold, wet, or windy it might be!

Date:

Astronomy

Dec. 20, 2012 Rise Set
Actual Time 7:15 AM EST 5:40 PM EST
Civil Twilight 6:50 AM EST 6:06 PM EST
Nautical Twilight 6:21 AM EST 6:35 PM EST
Astronomical Twilight 5:52 AM EST 7:03 PM EST
Moon 12:32 PM EST (12/20) 12:29 AM EST (12/20)
Length of Visible Light 11h 16m
Length of Day
10h 24m
First Quarter, 55% of the Moon is Illuminated
Dec 20
First Quarter
Dec 28
Full
Jan 4
Last Quarter
Jan 11
New
Jan 18
First Quarter

Hourly Weather History & Observations

Time (EST) Temp. Heat Index Dew Point Humidity Pressure Visibility Wind Dir Wind Speed Gust Speed Precip Events Conditions
12:53 AM 54.0 °F - 52.0 °F 93% 30.06 in 10.0 mi Calm Calm - N/A   Clear
1:53 AM 55.0 °F - 51.1 °F 86% 30.05 in 10.0 mi North - - N/A   Clear
2:53 AM 55.0 °F - 48.9 °F 80% 30.04 in 10.0 mi East 4.6 mph - N/A   Clear
3:53 AM 55.9 °F - 51.1 °F 84% 30.04 in 10.0 mi East 5.8 mph - N/A   Clear
4:53 AM 55.9 °F - 53.1 °F 90% 30.03 in 10.0 mi ESE 5.8 mph - N/A   Clear
5:53 AM 57.9 °F - 55.9 °F 93% 30.04 in 10.0 mi SE 6.9 mph - N/A   Clear
6:53 AM 59.0 °F - 57.9 °F 96% 30.04 in 10.0 mi SE 5.8 mph - N/A   Partly Cloudy
7:53 AM 60.1 °F - 59.0 °F 96% 30.06 in 8.0 mi SE 4.6 mph - N/A   Clear
8:53 AM 66.0 °F - 63.0 °F 90% 30.08 in 10.0 mi SE 5.8 mph - N/A   Clear
9:53 AM 73.9 °F - 64.0 °F 71% 30.07 in 10.0 mi SSE 10.4 mph - N/A   Clear
10:53 AM 78.1 °F - 64.0 °F 62% 30.05 in 10.0 mi SSE 16.1 mph - N/A   Clear
11:53 AM 79.0 °F - 64.9 °F 62% 30.01 in 10.0 mi South 21.9 mph 29.9 mph N/A   Clear
12:53 PM 80.1 °F 81.9 °F 64.9 °F 60% 29.99 in 10.0 mi South 21.9 mph 28.8 mph N/A   Clear
1:53 PM 78.1 °F - 64.9 °F 64% 29.95 in 10.0 mi South 18.4 mph 27.6 mph N/A   Clear
2:53 PM 77.0 °F - 66.0 °F 69% 29.96 in 10.0 mi South 17.3 mph 25.3 mph N/A   Clear
3:53 PM 77.0 °F - 64.9 °F 66% 29.94 in 10.0 mi South 19.6 mph 27.6 mph N/A   Clear
4:53 PM 75.0 °F - 66.0 °F 73% 29.96 in 10.0 mi South 16.1 mph - N/A   Clear
5:53 PM 73.0 °F - 66.0 °F 79% 29.97 in 10.0 mi South 12.7 mph - N/A   Clear
6:53 PM 73.0 °F - 66.9 °F 81% 29.98 in 10.0 mi South 11.5 mph - N/A   Overcast
7:53 PM 73.0 °F - 68.0 °F 84% 29.97 in 10.0 mi South 12.7 mph 20.7 mph N/A   Overcast
8:53 PM 73.0 °F - 69.1 °F 87% 29.97 in 10.0 mi South 15.0 mph - N/A   Mostly Cloudy
9:53 PM 73.0 °F - 70.0 °F 90% 29.97 in 10.0 mi South 15.0 mph - N/A   Overcast
10:53 PM 73.0 °F - 70.0 °F 90% 29.96 in 10.0 mi South 12.7 mph - N/A   Scattered Clouds
11:09 PM 73.4 °F - 69.8 °F 88% 29.96 in 10.0 mi South 15.0 mph - N/A   Mostly Cloudy
11:33 PM 71.6 °F - 69.8 °F 94% 29.98 in 1.8 mi SW 16.1 mph 27.6 mph 0.16 in Rain Heavy Rain
11:41 PM 69.8 °F - 66.2 °F 88% 29.99 in 2.0 mi WSW 21.9 mph 35.7 mph 0.20 in Rain Light Rain
11:49 PM 69.8 °F - 66.2 °F 88% 29.99 in 5.0 mi WSW 13.8 mph 28.8 mph 0.22 in Rain Light Rain
11:53 PM 69.1 °F - 66.9 °F 93% 29.99 in 5.0 mi WSW 15.0 mph 21.9 mph 0.23 in Rain Rain